Regional Weather Roundup
Issued by NWS

Home | Current Version | Previous Version | Graphics & Text | Print | Product List | Glossary Off
Versions: 1 2 3 4 5 6 7 8 9 10 11 12 13 14 15 16 17 18 19 20 21 22 23 24 25 26 27 28 29 30 31 32 33 34 35 36 37 38 39 40 41 42 43 44 45 46 47 48 49 50

000
ASUS43 KFSD 170710
RWRSD

WEATHER ROUNDUP FOR SOUTH DAKOTA
NATIONAL WEATHER SERVICE SIOUX FALLS SD
100 AM CST SUN DEC 17 2017

NOTE: "FAIR" INDICATES FEW OR NO CLOUDS BELOW 12,000 FEET WITH NO
SIGNIFICANT WEATHER AND/OR OBSTRUCTIONS TO VISIBILITY.


SDZ001>005-009-010-012>017-170800-
NORTHWEST AND NORTH CENTRAL SOUTH DAKOTA

CITY           SKY/WX    TMP DP  RH WIND       PRES   REMARKS
BUFFALO          N/A     26  22  84 W6        29.98F WCI  19
FAITH            N/A     26  23  88 W5        30.06F WCI  20
MOBRIDGE       CLOUDY    26  23  88 CALM      30.05F
$$

SDZ012>016-024>037-041>051-057-063-072>074-170800-
SOUTHWEST AND SOUTH CENTRAL SOUTH DAKOTA

CITY           SKY/WX    TMP DP  RH WIND       PRES   REMARKS
RAPID CTY ARPT CLOUDY    30  25  81 W6        30.05F WCI  24
PIERRE         CLOUDY    31  29  92 N3        30.06F
CUSTER         CLOUDY    23  18  81 N6        29.96F WCI  16
ELLSWORTH AFB  MIX PCPN  30  27  86 W6        30.05  WCI  24
PHILIP         CLOUDY    30  27  88 NW6       30.07S WCI  24
PINE RIDGE     CLOUDY    29  26  89 CALM      30.03F
SPEARFISH      MOCLDY    28  27  93 CALM      30.04F
WINNER         FAIR      32  29  88 CALM      30.06F
$$

SDZ004>011-016>023-039-040-170800-
NORTHEAST SOUTH DAKOTA

CITY           SKY/WX    TMP DP  RH WIND       PRES   REMARKS
ABERDEEN       MOCLDY    24  24 100 W3        30.08S
WATERTOWN      CLOUDY    26  26 100 CALM      30.05S
BROOKINGS      CLOUDY    28  26  92 NW5       30.05S FOG     WCI  23
SISSETON         N/A     26  24  92 CALM      30.07F
$$

SDZ017-020-022-023-036>040-048>070-170800-
SOUTHEAST SOUTH DAKOTA

CITY           SKY/WX    TMP DP  RH WIND       PRES   REMARKS
SIOUX FALLS    PTCLDY    27  26  96 N5        30.07R WCI  22
HURON          CLOUDY    30  29  96 NE3       30.06F FOG
CHAMBERLAIN    PTCLDY    33  31  95 CALM      30.07S
MITCHELL       CLOUDY    30  29  96 E5        30.08S WCI  25
YANKTON        CLOUDY    28  27  96 N9        30.05F WCI  19
$$

ABBREVIATIONS USED IN REMARKS
   TC - TEMPERATURE IN CELSIUS
  WCI - WIND CHILL INDEX
   HX - HEAT INDEX
  VSB - VISIBILITY




USA.gov is the U.S. government's official web portal to all federal, state and local government web resources and services.